Waarnemingen

Advertentie
Mijn weer
St-Girons, Frankrijk (7627): temperatuur & dauwpunt: 14.10.2018 21:00:00 - 20.10.2018 21:00:00 (CEST)St-Girons, Frankrijk (7627): temperatuur 5cm: 14.10.2018 21:00:00 - 20.10.2018 21:00:00 (CEST)St-Girons, Frankrijk (7627): temperatuur -20cm & temperatuur -100cm: 14.10.2018 21:00:00 - 20.10.2018 21:00:00 (CEST)St-Girons, Frankrijk (7627): windsnelheid & windstoten: 14.10.2018 21:00:00 - 20.10.2018 21:00:00 (CEST)St-Girons, Frankrijk (7627): windrichting: 14.10.2018 21:00:00 - 20.10.2018 21:00:00 (CEST)St-Girons, Frankrijk (7627): luchtdruk: 14.10.2018 21:00:00 - 20.10.2018 21:00:00 (CEST)St-Girons, Frankrijk (7627): zicht: 14.10.2018 21:00:00 - 20.10.2018 21:00:00 (CEST)St-Girons, Frankrijk (7627): Zonneschijnduur: 14.10.2018 21:00:00 - 20.10.2018 21:00:00 (CEST)St-Girons, Frankrijk (7627): neerslag: 14.10.2018 21:00:00 - 20.10.2018 21:00:00 (CEST)
Datum & Tijd tt [°C] td [°C] tt 5cm [°C] tt -20cm [°C] tt -100cm [°C] ff [km/u] ff [kn] fx [km/u] fx [kn] dd ppp [hPa] vv [km] sd [min] rr [mm]
20.10.2018 21:00:00 15,4 14,3 11,7 17,9 18,0 2 1 6 4 NNO 1025,1 4,6 0 0,0
20.10.2018 20:00:00 15,8 13,8 12,5 17,8 18,0 4 2 6 4 WNW 1024,6 8 0 0,0
20.10.2018 19:00:00 18,2 13,9 16,1 17,8 18,0 3 1 11 6 N 1023,5 17 22 0,0
20.10.2018 18:00:00 19,9 14,5 21,4 17,7 18,0 9 5 13 7 W 1022,9 18 60 0,0
20.10.2018 17:00:00 20,5 14,8 26,6 17,6 18,0 8 4 13 7 NW 1022,7 19 60 0,0
20.10.2018 16:00:00 20,5 14,6 26,7 17,6 18,0 4 2 10 5 W 1022,9 19 56 0,0
20.10.2018 15:00:00 19,7 14,9 22,3 17,5 17,9 7 4 17 9 NNW 1023,4 15 44 0,0
20.10.2018 14:00:00 17,9 14,6 21,9 17,6 18,0 8 4 15 8 W 1024,2 13 18 0,0
20.10.2018 13:00:00 16,4 14,9 19,3 17,6 18,0 2 1 8 4 ONO 1025,1 7 0 0,0
20.10.2018 12:00:00 15,6 14,8 16,0 17,6 18,0 2 1 9 5 NW 1025,1 6 0 0,0
20.10.2018 11:00:00 15,3 14,7 15,7 17,6 18,0 5 3 9 5 N 1024,9 0,2 0 0,2
20.10.2018 10:00:00 15,3 14,7 15,2 17,6 18,0 0 0 6 4 N 1024,3 0,3 0 0,0
20.10.2018 09:00:00 15,0 14,4 14,8 17,7 18,0 4 2 9 5 NNW 1023,8 0,2 0 0,0
20.10.2018 08:00:00 14,6 14,0 14,6 17,7 18,0 0 0 6 3 N 1022,8 0,3 0 0,0
20.10.2018 07:00:00 14,9 14,4 12,9 17,7 18,0 4 2 8 5 W 1022,1 1,0 0 0,0
20.10.2018 06:00:00 13,7 13,1 12,3 17,7 18,0 4 2 5 3 NW 1021,6 0,6 0 0,0
20.10.2018 05:00:00 14,1 13,5 12,7 17,7 18,0 0 0 3 2 N 1021,0 0,4 0 0,0
20.10.2018 04:00:00 14,4 13,6 12,9 17,8 18,0 2 1 5 3 ONO 1021,4 1,7 0 0,0
20.10.2018 03:00:00 14,5 13,7 13,2 17,8 18,0 0 0 3 2 N 1021,6 2,0 0 0,0
20.10.2018 02:00:00 14,4 13,6 13,1 17,8 18,0 0 0 4 2 N 1021,5 0,8 0 0,0
20.10.2018 01:00:00 14,6 13,8 12,4 17,8 18,0 0 0 3 1 N 1021,4 0,2 0 0,0
20.10.2018 00:00:00 15,3 14,3 14,1 17,8 18,0 0 0 8 4 N 1021,2 4,7 0 0,0
19.10.2018 23:00:00 15,4 14,4 13,1 17,7 18,0 2 1 6 3 ZZW 1020,7 4,9 0 0,0
19.10.2018 22:00:00 16,4 15,3 15,5 17,7 18,0 2 1 5 3 ZO 1020,3 9 0 0,0
19.10.2018 21:00:00 16,7 15,2 15,6 17,7 18,0 3 2 6 3 NW 1019,8 8 0 0,0
19.10.2018 20:00:00 17,2 15,0 15,5 17,6 18,0 0 0 6 3 N 1019,2 17 0 0,0
19.10.2018 19:00:00 18,1 15,7 17,6 17,5 18,0 4 2 6 3 WZW 1018,2 18 0 0,0
19.10.2018 18:00:00 19,0 14,9 19,1 17,4 18,0 2 1 7 4 NW 1017,5 18 0 0,0
19.10.2018 17:00:00 19,4 14,6 19,2 17,4 18,0 5 3 14 8 NNO 1017,4 20 0 0,0
19.10.2018 16:00:00 19,8 15,0 20,7 17,3 18,0 9 5 15 8 NNW 1017,0 20 10 0,0
19.10.2018 15:00:00 20,3 14,2 23,5 17,2 18,0 9 5 15 8 NNW 1016,9 20 36 0,0
19.10.2018 14:00:00 20,8 14,2 28,7 17,2 18,0 4 2 13 7 WNW 1017,2 16 60 0,0
19.10.2018 13:00:00 19,3 14,5 24,3 17,2 18,0 3 2 8 5 WNW 1017,8 20 32 0,0
19.10.2018 12:00:00 18,3 13,6 18,3 17,2 18,0 0 0 6 3 N 1018,2 20 40 0,0
19.10.2018 11:00:00 14,5 13,2 14,2 17,3 18,0 3 2 11 6 W 1018,8 20 0 0,0
19.10.2018 10:00:00 13,0 12,4 12,1 17,3 18,0 0 0 5 3 N 1018,7 18 31 0,0
19.10.2018 09:00:00 12,1 11,5 7,9 17,4 18,0 2 1 5 3 O 1018,5 16 25 0,0
19.10.2018 08:00:00 10,6 10,0 8,1 17,4 18,0 0 0 5 3 N 1018,3 0,4 0 0,0
19.10.2018 07:00:00 11,0 10,2 8,2 17,4 18,0 0 0 9 5 N 1018,0 0,3 0 0,0
19.10.2018 06:00:00 11,7 11,1 8,2 17,5 18,1 0 0 4 2 N 1017,4 0,2 0 0,0
19.10.2018 05:00:00 12,4 11,6 9,7 17,5 18,0 2 1 5 3 WNW 1017,3 0,3 0 0,0
19.10.2018 04:00:00 13,1 12,5 12,6 17,5 18,0 0 0 5 3 N 1017,2 4,6 0 0,0
19.10.2018 03:00:00 13,1 12,3 12,6 17,6 18,0 3 1 5 3 NNO 1017,3 2,6 0 0,0
19.10.2018 02:00:00 13,0 12,2 12,4 17,6 18,1 0 0 3 2 N 1017,4 3,5 0 0,0
19.10.2018 01:00:00 13,0 12,2 12,6 17,6 18,0 2 1 5 3 NNO 1017,3 1,6 0 0,0
19.10.2018 00:00:00 13,0 12,4 10,7 17,6 18,0 0 0 8 4 N 1017,4 2,1 0 0,0
18.10.2018 23:00:00 12,4 11,5 10,6 17,7 18,1 0 0 4 2 N 1017,1 1,3 0 0,0
18.10.2018 22:00:00 13,1 12,3 12,1 17,6 18,0 2 1 6 3 Z 1016,8 6 0 0,0
18.10.2018 21:00:00 12,9 11,8 11,1 17,6 18,0 0 0 5 3 N 1016,6 6 0 0,0
18.10.2018 20:00:00 13,7 12,3 10,9 17,6 18,0 2 1 7 4 ZZW 1016,0 10 0 0,0
18.10.2018 19:00:00 15,8 12,9 15,5 17,5 18,0 5 3 9 5 O 1015,1 20 0 0,0
18.10.2018 18:00:00 16,3 13,2 17,0 17,5 18,1 2 1 7 4 OZO 1014,6 20 0 0,0
18.10.2018 17:00:00 16,6 13,1 18,0 17,4 18,1 5 3 9 5 NO 1014,5 20 0 0,0
18.10.2018 16:00:00 16,9 13,4 18,2 17,4 18,0 3 1 9 5 ZO 1014,4 20 0 0,0
18.10.2018 15:00:00 16,0 13,1 17,1 17,4 18,1 3 1 13 7 NNW 1014,8 19 0 0,0
18.10.2018 14:00:00 16,0 13,3 17,3 17,4 18,0 4 2 11 6 NNO 1015,2 17 0 0,2
18.10.2018 13:00:00 15,7 12,8 17,8 17,4 18,0 3 1 9 5 OZO 1015,6 18 0 0,0
18.10.2018 12:00:00 15,8 12,7 15,8 17,4 18,1 3 1 8 4 ZO 1015,7 20 0 0,0
18.10.2018 11:00:00 14,5 13,7 14,0 17,4 18,1 3 1 6 3 WNW 1016,0 19 0 0,2
18.10.2018 10:00:00 13,3 12,5 13,0 17,4 18,0 3 2 5 3 N 1015,8 8 0 0,4
18.10.2018 09:00:00 12,9 12,1 12,9 17,5 18,1 5 3 8 4 ZZW 1015,8 10 0 0,8
18.10.2018 08:00:00 12,8 12,0 12,7 17,5 18,1 2 1 10 5 NO 1015,3 17 0 0,6
18.10.2018 07:00:00 12,8 12,2 12,5 17,6 18,1 4 2 8 5 OZO 1015,5 3,2 0 0,6
18.10.2018 06:00:00 12,5 11,9 11,3 17,6 18,1 0 0 6 3 N 1015,1 3,5 0 0,0
18.10.2018 05:00:00 11,9 11,1 9,9 17,6 18,1 4 2 6 4 ZW 1015,0 0,2 0 0,0
18.10.2018 04:00:00 12,8 12,0 11,0 17,6 18,1 5 3 12 7 ZZO 1014,9 19 0 0,0
18.10.2018 03:00:00 13,4 12,8 11,9 17,6 18,0 2 1 7 4 ZO 1015,2 0,4 0 0,0
18.10.2018 02:00:00 13,3 12,5 10,5 17,7 18,1 4 2 5 3 W 1015,3 0,2 0 0,0
18.10.2018 01:00:00 14,8 13,5 12,9 17,6 18,1 0 0 3 2 N 1015,3 11 0 0,0
18.10.2018 00:00:00 15,2 13,9 14,8 17,7 18,1 0 0 3 1 N 1015,8 19 0 0,0
17.10.2018 23:00:00 15,4 13,8 15,1 17,6 18,1 0 0 3 2 N 1015,7 19 0 0,0
17.10.2018 22:00:00 15,5 13,5 15,2 17,6 18,1 0 0 3 1 N 1015,3 20 0 0,0
17.10.2018 21:00:00 15,6 13,3 15,4 17,5 18,1 0 0 5 3 N 1015,2 20 0 0,0
17.10.2018 20:00:00 15,8 13,5 15,5 17,5 18,1 3 1 6 3 WNW 1015,1 20 0 0,0
17.10.2018 19:00:00 16,5 12,6 16,2 17,4 18,1 0 0 7 4 N 1014,7 7 0 0,0
17.10.2018 18:00:00 17,2 12,7 17,9 17,4 18,1 3 1 13 7 N 1014,2 20 0 0,0
17.10.2018 17:00:00 17,4 12,5 18,5 17,3 18,1 8 4 14 7 NO 1014,5 20 0 0,0
17.10.2018 16:00:00 18,7 12,2 22,5 17,3 18,1 2 1 10 5 ONO 1014,4 20 15 0,0
17.10.2018 15:00:00 18,1 11,6 21,5 17,3 18,1 5 3 10 5 O 1015,2 20 16 0,0
17.10.2018 14:00:00 16,9 11,6 19,4 17,3 18,1 0 0 8 4 N 1016,4 20 0 0,0
17.10.2018 13:00:00 16,7 11,6 19,8 17,3 18,1 0 0 8 4 N 1017,4 20 0 0,0
17.10.2018 12:00:00 15,7 12,4 15,8 17,3 18,1 5 3 9 5 ZZO 1017,8 20 0 0,0
17.10.2018 11:00:00 13,6 12,0 14,2 17,4 18,1 5 3 12 6 ZO 1018,5 20 0 0,0
17.10.2018 10:00:00 12,5 11,9 12,3 17,4 18,1 3 2 5 3 ONO 1018,8 20 0 0,0
17.10.2018 09:00:00 11,6 11,0 10,9 17,4 18,1 0 0 4 2 N 1018,9 18 0 0,0
17.10.2018 08:00:00 11,0 10,4 7,1 17,5 18,1 2 1 6 3 O 1019,1 0,3 0 0,0
17.10.2018 07:00:00 10,1 9,3 7,5 17,5 18,1 3 1 14 8 NW 1019,3 0,2 0 0,0
17.10.2018 06:00:00 11,7 11,1 8,7 17,5 18,1 6 3 11 6 ZO 1018,8 14 0 0,0
17.10.2018 05:00:00 11,6 11,0 9,0 17,6 18,1 0 0 0 0 N 1019,0 2,5 0 0,0
17.10.2018 04:00:00 11,2 10,4 9,1 17,6 18,1 2 1 4 2 W 1019,2 0,2 0 0,2
17.10.2018 03:00:00 12,2 11,1 9,0 17,6 18,2 0 0 8 5 N 1019,3 0,2 0 0,0
17.10.2018 02:00:00 13,8 12,7 13,3 17,6 18,1 7 4 13 7 Z 1019,2 20 0 0,0
17.10.2018 01:00:00 13,8 12,9 13,6 17,6 18,2 3 1 12 6 ZO 1019,6 20 0 0,0
17.10.2018 00:00:00 13,9 12,9 13,5 17,6 18,1 7 4 10 5 Z 1020,0 10 0 0,4
16.10.2018 23:00:00 14,2 12,9 13,7 17,6 18,2 2 1 7 4 W 1020,2 6 0 2,0
16.10.2018 22:00:00 14,6 13,0 14,0 17,6 18,2 6 4 10 5 WNW 1019,7 6 0 0,4
16.10.2018 21:00:00 15,0 13,4 14,2 17,5 18,2 3 1 9 5 WZW 1019,0 20 0 0,0
16.10.2018 20:00:00 15,6 13,1 14,4 17,4 18,2 6 4 10 5 Z 1018,5 20 0 0,0
16.10.2018 19:00:00 16,8 12,5 16,1 17,3 18,2 5 3 9 5 W 1017,5 20 0 0,0
16.10.2018 18:00:00 17,6 12,5 17,4 17,2 18,2 5 3 10 6 NW 1017,0 20 0 0,0
16.10.2018 17:00:00 18,6 11,7 20,0 17,1 18,2 6 3 16 9 NNW 1016,5 20 15 0,0
16.10.2018 16:00:00 19,8 11,0 25,1 17,0 18,2 9 5 16 9 N 1016,1 20 57 0,0
16.10.2018 15:00:00 19,8 12,1 22,9 17,0 18,2 10 5 16 9 W 1016,0 20 56 0,0
16.10.2018 14:00:00 19,5 12,0 28,5 17,0 18,2 6 3 13 7 N 1016,2 20 60 0,0
16.10.2018 13:00:00 18,5 12,0 27,1 17,0 18,2 3 2 8 4 NW 1016,4 20 60 0,0
16.10.2018 12:00:00 17,0 11,0 23,0 17,1 18,2 3 1 8 5 N 1016,5 20 60 0,0
16.10.2018 11:00:00 15,5 11,5 16,1 17,1 18,2 3 2 11 6 NNO 1016,3 20 60 0,0
16.10.2018 10:00:00 11,9 11,4 8,3 17,2 18,2 2 1 6 4 Z 1016,9 20 21 0,0
16.10.2018 09:00:00 8,4 7,8 7,0 17,2 18,2 3 2 6 3 W 1017,0 20 0 0,0
16.10.2018 08:00:00 7,8 7,2 5,1 17,3 18,2 0 0 4 2 N 1016,5 2,6 0 0,2
16.10.2018 07:00:00 8,2 7,4 5,7 17,4 18,2 2 1 5 3 Z 1015,8 0,6 0 0,0
16.10.2018 06:00:00 9,4 8,8 8,0 17,4 18,2 0 0 5 3 N 1015,1 0,7 0 0,0
16.10.2018 05:00:00 8,8 8,0 7,2 17,5 18,2 0 0 5 3 N 1014,7 0,3 0 0,0
16.10.2018 04:00:00 9,2 8,6 6,2 17,5 18,2 0 0 4 2 N 1014,3 0,1 0 0,0
16.10.2018 03:00:00 9,4 8,6 6,1 17,6 18,2 3 1 5 3 O 1014,3 20 0 0,0
16.10.2018 02:00:00 10,0 9,1 7,6 17,6 18,2 2 1 10 5 ZZW 1013,9 20 0 0,0
16.10.2018 01:00:00 10,7 9,1 8,3 17,7 18,2 7 4 19 10 ZO 1013,5 20 0 0,0
16.10.2018 00:00:00 11,5 9,7 8,0 17,7 18,2 10 5 22 12 ZO 1012,9 20 0 0,0
15.10.2018 23:00:00 11,2 10,1 8,4 17,7 18,2 3 2 10 5 ZO 1012,7 20 0 0,0
15.10.2018 22:00:00 12,6 11,0 10,4 17,7 18,2 2 1 7 4 ZO 1012,2 20 0 0,0
15.10.2018 21:00:00 12,8 11,5 11,4 17,6 18,2 3 1 5 3 Z 1011,4 20 0 0,0
15.10.2018 20:00:00 12,6 11,2 11,0 17,5 18,2 4 2 6 3 W 1011,1 20 0 0,0
15.10.2018 19:00:00 14,8 11,0 14,3 17,5 18,2 0 0 16 9 N 1009,7 20 0 0,0
15.10.2018 18:00:00 15,4 11,2 15,1 17,4 18,2 5 3 10 6 NNO 1009,3 20 0 0,0
15.10.2018 17:00:00 16,5 9,7 18,4 17,4 18,2 4 2 12 6 N 1008,6 20 21 0,0
15.10.2018 16:00:00 18,1 10,0 22,1 17,3 18,2 3 2 11 6 ONO 1007,8 20 41 0,0
15.10.2018 15:00:00 16,2 10,3 21,6 17,3 18,2 2 1 9 5 N 1008,1 20 2 0,0
15.10.2018 14:00:00 15,7 10,5 18,9 17,3 18,3 3 2 10 6 ONO 1008,5 20 6 0,0
15.10.2018 13:00:00 14,7 10,3 16,8 17,3 18,2 3 1 8 4 NO 1009,1 20 0 0,0
15.10.2018 12:00:00 13,7 10,1 15,2 17,3 18,2 3 1 8 4 WNW 1008,9 20 0 0,0
15.10.2018 11:00:00 12,9 11,1 13,0 17,4 18,2 0 0 8 4 N 1008,8 20 13 0,0
15.10.2018 10:00:00 11,5 10,7 11,5 17,5 18,3 5 3 10 5 NNW 1008,9 20 0 0,0
15.10.2018 09:00:00 11,1 10,3 11,2 17,5 18,2 0 0 6 3 N 1008,4 11 0 0,0
15.10.2018 08:00:00 11,1 10,3 11,0 17,6 18,3 0 0 10 5 N 1007,5 1,4 0 0,2
15.10.2018 07:00:00 11,5 10,7 11,0 17,6 18,2 4 2 8 4 NW 1007,3 12 0 0,0
15.10.2018 06:00:00 11,5 10,7 11,3 17,7 18,2 0 0 8 4 N 1007,3 10 0 1,6
15.10.2018 05:00:00 11,8 11,0 11,5 17,8 18,2 2 1 10 5 NO 1007,8 19 0 1,0
15.10.2018 04:00:00 11,7 10,9 11,4 17,9 18,3 5 3 8 5 WNW 1008,1 9 0 4,1
15.10.2018 03:00:00 11,9 11,0 11,5 18,0 18,2 5 3 9 5 NNW 1009,1 2,1 0 9,9
15.10.2018 02:00:00 12,1 11,3 11,8 18,1 18,2 6 4 13 7 NNW 1009,2 6 0 3,2
15.10.2018 01:00:00 12,3 11,5 12,1 18,1 18,2 5 3 11 6 WNW 1009,7 5 0 4,8
15.10.2018 00:00:00 12,5 11,4 12,2 18,1 18,2 0 0 5 3 N 1010,4 2,3 0 3,7
14.10.2018 23:00:00 12,7 11,6 12,6 18,2 18,2 2 1 7 4 NNW 1010,7 4,9 0 1,6
14.10.2018 22:00:00 12,8 11,7 12,5 18,1 18,2 5 3 10 6 NO 1010,5 16 0 2,4
14.10.2018 21:00:00 13,1 11,7 12,8 18,1 18,2 8 5 26 14 NNW 1010,2 9 0 1,0

tt = temperatuur
td = dauwpunt
tt 5cm = temperatuur 5cm
tt -20cm = temperatuur -20cm
tt -100cm = temperatuur -100cm
ff = windsnelheid
fx = windstoten
dd = windrichting
ppp = luchtdruk
vv = zicht
sd = Zonneschijnduur
rr = neerslag

Weerstations in de omgeving